Regional Weather Roundup
Issued by NWS

Home | Current Version | Previous Version | Graphics & Text | Print | Product List | Glossary On
Versions: 1 2 3 4 5 6 7 8 9 10 11 12 13 14 15 16 17 18 19 20 21 22 23 24 25 26 27 28 29 30 31 32 33 34 35 36 37 38 39 40 41 42 43 44 45 46 47 48 49 50
459
ASUS43 KTOP 300108
RWRKS

WEATHER ROUNDUP FOR KANSAS
NATIONAL WEATHER SERVICE GOODLAND KS
800 PM CDT SAT APR 29 2017

NOTE:  "FAIR" INDICATES FEW OR NO CLOUDS BELOW 12,000 FEET WITH NO
SIGNIFICANT WEATHER AND/OR OBSTRUCTIONS TO VISIBILITY.

KSZ001>006-013>018-027>032-041>047-300200-
NORTHWEST KANSAS

CITY           SKY/WX    TMP DP  RH WIND       PRES   REMARKS
GOODLAND       LGT SNOW  33  32  96 N28G35    30.01F VSB 1   WCI  20
HAYS           LGT RAIN  38  37  97 N23G31    29.88F FOG     WCI  27
HILL CITY      LGT RAIN  37  36  96 N25G38    29.94F FOG     WCI  25
RUSSELL        LGT RAIN  40  38  93 N24G33    29.86F FOG     WCI  29
$$

KSZ061>065-074>080-084>089-300200-
SOUTHWEST KANSAS

CITY           SKY/WX    TMP DP  RH WIND       PRES   REMARKS
DODGE CITY     LGT SNOW  38  36  92 N29G38    29.82S FOG     WCI  26
ELKHART          N/A     31  27  86 N24         N/A  WCI  17
GARDEN CITY    RAIN      34  32  92 N26G35    29.87R WCI  21
GREAT BEND     LGT RAIN  39  39 100 N25G32    29.83F FOG     WCI  28
LIBERAL        LGT RAIN  34  33  96 NW20G26   29.89R WCI  23
PRATT          LGT RAIN  39  38  97 N20G26    29.78R WCI  30
$$

KSZ066>073-081>083-090>101-300200-
SOUTHEAST KANSAS

CITY           SKY/WX    TMP DP  RH WIND       PRES   REMARKS
CHANUTE        TSTM      55  53  93 N12       29.73R FOG
COFFEYVILLE    TSTM      58  56  93 NW25G32   29.66R FOG
HUTCHINSON     LGT RAIN  45  43  93 N18G30    29.76S FOG
MEDICINE LODGE   N/A    N/A N/A N/A N21G28    29.73S
NEWTON         LGT RAIN  44  43  96 NE21G30   29.76R FOG
PARSONS        TSTM      57  55  93 SW16G23   29.78R FOG
WICHITA INTL   LGT RAIN  47  46  97 NE20G31   29.73R FOG
WICHITA JABRA  LGT RAIN  46  45  96 NE18G30   29.73R FOG
WICHITA MCCONL DRIZZLE   46  44  93 NE25G32   29.72R FOG
WINFIELD       CLOUDY    49  46  90 N22G28    29.66F
$$

KSZ007>012-019>026-033>040-048>060-102>105-300200-
NORTHEAST KANSAS

CITY           SKY/WX    TMP DP  RH WIND       PRES   REMARKS
CONCORDIA      LGT RAIN  42  41  96 NE22G28   29.89R FOG
EMPORIA        CLOUDY    46  46 100 N16G28    29.77R FOG
LAWRENCE       LGT RAIN  47  46  97 NE8       29.83R
MANHATTAN      CLOUDY    45  43  93 NE18G29   29.85R FOG
MARYSVILLE     DRIZZLE   41  41 100 NE20G25   29.89R
OLATHE IND     LGT RAIN  47  45  93 NE10      29.82R
OLATHE EXE     LGT RAIN  45  45 100 E9        29.82R
SALINA         LGT RAIN  45  42  89 N18G26    29.84R FOG
TOPEKA BILLARD CLOUDY    46  45  96 NE10G23   29.86R
TOPEKA FORBES  CLOUDY    47  45  93 NE9       29.87R
$$




USA.gov is the U.S. government's official web portal to all federal, state and local government web resources and services.